Dewpoint
55 55 56 56 56 56 56 56 57 58 58 58 58 58 58 57 57 56 55 55 54 54 55 54 54 55 54 55 55 54 54 53 51 52 52 47 42 42 39 40 38 39 39
54 55 56 56 56 56 56 56 57 57 57 57 57 58 57 57 57 56 55 55 55 54 54 54 54 54 54 54 54 53 54 53 52 51 47 40 36 39 37 36 34 32 38
55 55 55 55 55 55 55 56 56 56 56 56 56 56 57 57 57 56 56 55 55 55 54 54 54 54 53 52 52 51 49 47 46 47 38 36 35 33 33 33 31 30 33
54 55 54 55 55 55 55 55 55 55 55 55 55 55 55 56 56 56 55 55 51 48 46 45 45 47 48 46 44 43 42 40 39 39 34 32 31 30 29 26 26 26 29
54 53 53 55 56 55 55 55 55 55 55 55 55 55 55 55 55 55 53 48 43 39 37 36 36 37 37 37 37 37 37 35 33 31 29 27 26 26 24 23 20 21 26
53 53 52 54 55 55 54 54 54 54 54 54 53 52 51 51 53 52 47 42 39 36 34 33 33 32 32 31 31 31 32 31 29 27 26 22 21 22 21 19 16 15 12
53 53 52 54 53 54 54 54 54 50 49 47 46 46 45 45 47 45 41 38 36 34 32 31 31 31 30 30 29 27 27 26 25 23 21 21 17 18 17 14 13 11 8
53 53 53 53 53 53 53 48 45 43 42 40 39 38 37 36 38 37 35 34 33 32 32 31 30 29 29 27 25 24 23 22 22 21 19 17 16 13 13 12 10 9 8
53 53 54 54 52 49 46 43 40 38 36 35 34 34 33 32 33 33 32 30 29 29 30 29 29 28 29 26 23 20 19 19 19 16 14 13 12 11 10 9 7 6 4
53 53 53 51 49 46 42 39 36 35 33 32 31 31 32 31 32 31 30 29 27 26 26 27 26 26 25 23 21 19 17 15 13 11 8 7 7 7 8 7 8 6 5
48 49 49 47 44 40 37 36 34 32 31 30 29 30 30 30 30 30 29 27 25 23 22 22 23 23 21 20 19 17 16 15 14 12 10 9 7 5 4 5 6 7 5
39 39 38 37 37 36 34 33 32 31 29 28 28 28 29 30 30 29 27 25 24 21 20 21 22 20 19 18 17 16 15 15 12 9 6 4 5 4 2 3 3 3 3
34 33 33 33 33 32 31 30 29 29 28 27 26 26 26 27 27 27 25 24 22 21 21 21 19 18 16 16 14 13 12 11 9 7 5 3 3 3 1 2 2 2 3
29 29 29 30 29 29 29 29 28 28 27 25 23 21 22 23 23 24 23 23 22 19 18 16 15 15 13 12 12 11 10 9 7 5 4 2 2 2 1 2 2 3 2
25 25 25 24 24 24 24 24 24 24 24 23 22 22 20 19 20 20 19 18 17 16 15 14 12 11 10 9 8 7 7 5 4 3 2 0 -0 1 0 1 2 1 0
25 24 24 23 23 23 23 24 27 26 26 25 24 23 23 23 23 22 21 19 18 15 11 9 9 8 7 5 5 5 4 3 2 1 1 -0 -0 0 -0 0 0 -0 -1
23 23 23 23 22 22 22 21 21 25 26 26 25 25 23 24 22 21 19 17 15 11 9 8 7 6 6 4 4 3 3 3 1 0 -0 -1 -2 -1 -1 -1 -1 -2 -2
22 22 22 22 22 21 21 21 20 19 18 20 24 23 23 21 19 17 16 13 10 9 7 6 6 6 4 3 2 2 1 0 0 -0 -1 -2 -3 -2 -3 -2 -2 -2 -3
19 19 20 20 20 20 20 19 18 18 17 16 17 18 18 16 14 12 10 8 7 6 5 4 4 3 2 1 -0 -1 -1 -1 -2 -2 -2 -2 -5 -4 -4 -3 -3 -4 -4
19 19 19 18 17 16 16 15 14 13 12 11 10 10 8 7 6 7 7 7 6 5 4 2 2 2 1 -1 -2 -2 -2 -2 -1 -1 -3 -4 -5 -5 -4 -4 -4 -4 -4
18 17 17 17 16 15 14 13 12 11 9 8 8 8 6 5 5 4 4 4 4 3 2 1 1 1 -1 -1 -1 -2 -2 -3 -2 -2 -3 -3 -5 -5 -4 -3 -3 -3 -3
17 16 15 14 14 13 12 11 10 8 7 6 6 5 5 4 3 2 1 1 1 2 2 1 2 2 1 1 -0 -2 -2 -1 -2 -3 -3 -5 -5 -4 -4 -4 -4 -4 -4
15 14 13 12 12 11 10 9 8 6 5 5 4 3 2 1 1 0 -1 -0 1 1 1 1 1 1 -1 -2 -2 -1 -0 -0 -1 -3 -4 -6 -5 -5 -5 -6 -5 -5 -4
14 13 11 11 10 9 8 7 6 4 3 2 1 1 0 -0 -1 -2 -3 -3 -2 -3 -2 -2 -1 -1 -0 -2 -3 -2 1 -0 -1 -4 -6 -6 -6 -5 -6 -5 -4 -4 -4
11 11 10 9 8 7 6 5 4 3 2 2 0 -1 -2 -3 -3 -4 -4 -4 -4 -4 -3 -3 -3 -3 -3 -2 -2 -1 -2 -4 -5 -6 -6 -6 -6 -7 -7 -6 -5 -4 -4
9 8 7 7 6 5 3 2 2 1 1 0 -1 -1 -2 -3 -4 -5 -6 -5 -4 -4 -4 -5 -4 -3 -3 -2 -1 -2 -5 -5 -6 -7 -6 -6 -7 -7 -7 -6 -5 -4 -3
Wind_Speed
16 16 14 13 13 10 10 7 9 10 15 18 24 25 24 32 30 29 27 27 28 25 23 24 21 14 14 14 12 11 13 12 14 11 4 8 9 13 13 13 14 13 15
12 14 15 13 14 13 11 9 7 7 10 13 15 19 20 25 29 30 29 28 28 25 21 18 19 16 17 13 13 14 14 13 15 20 2 7 11 8 11 12 13 12 9
15 15 15 13 15 14 12 11 10 8 9 10 11 13 16 17 24 27 24 26 25 22 18 18 15 17 14 11 9 8 4 2 1 1 4 5 6 11 6 7 10 11 8
18 16 16 15 15 14 12 12 12 12 11 11 12 13 12 16 18 21 23 18 17 16 14 13 11 10 13 12 9 7 7 8 7 9 7 5 7 6 6 9 9 10 7
19 18 14 13 14 14 13 12 12 12 12 11 11 11 12 12 11 16 20 22 23 21 18 17 15 15 15 12 11 10 12 12 12 12 10 6 9 10 11 10 8 10 3
19 18 15 14 15 14 13 13 12 12 13 13 11 12 12 11 16 21 23 22 21 24 24 23 23 26 29 30 29 27 15 15 15 11 13 13 11 10 10 11 10 9 8
18 18 16 15 15 16 14 14 10 12 14 14 13 14 12 8 19 27 28 21 22 21 22 22 21 18 22 26 30 33 32 30 22 17 18 10 11 9 7 8 10 6 5
18 18 18 17 16 15 14 15 15 14 15 15 15 15 17 14 20 30 29 24 24 21 20 19 21 19 18 22 25 26 25 22 20 19 19 17 14 10 9 6 6 6 6
20 22 22 21 18 19 19 18 16 18 17 16 15 18 21 19 19 24 32 27 28 26 23 21 21 21 23 24 24 26 23 21 23 24 24 21 20 20 15 9 14 13 6
17 19 19 20 24 23 22 22 14 19 20 19 22 20 21 22 20 21 26 28 30 26 25 25 27 24 25 23 20 19 19 14 13 14 14 17 15 17 18 15 11 12 9
11 13 12 14 20 21 20 20 22 22 23 22 25 21 21 20 21 24 25 26 26 26 24 23 22 29 27 26 23 18 18 14 14 14 13 11 12 14 12 11 11 9 8
17 20 19 14 17 20 24 22 22 25 27 25 26 24 21 20 23 28 31 32 30 29 25 22 24 29 28 28 24 24 20 15 12 13 13 13 11 11 12 13 11 9 8
21 21 18 21 20 24 23 22 23 23 24 23 24 25 25 23 24 34 35 34 31 28 23 29 32 30 28 24 25 22 17 14 13 12 11 10 12 12 11 9 9 12 10
21 23 19 20 25 23 20 18 21 20 21 22 28 26 23 25 23 21 22 27 32 25 24 22 22 23 21 19 16 17 15 13 13 12 11 10 9 9 10 11 10 14 14
21 19 21 21 24 28 24 22 23 19 20 22 23 23 25 23 20 22 22 18 19 21 20 15 16 16 16 15 15 13 14 13 14 12 11 10 9 9 10 11 10 11 11
18 17 18 21 23 25 27 29 31 28 30 29 25 27 22 27 32 32 31 31 26 24 18 16 15 15 15 13 12 13 12 13 12 10 9 9 10 11 11 11 10 11 14
18 18 19 21 22 25 26 29 34 33 35 35 32 31 30 29 31 31 30 27 22 19 17 15 16 14 13 12 11 11 12 10 9 9 9 9 7 8 11 11 13 13 17
21 20 19 19 20 21 23 25 26 29 28 27 27 26 31 30 28 28 27 23 17 15 14 15 14 12 12 12 11 11 9 8 8 8 8 7 10 8 11 13 14 14 16
18 17 17 18 17 20 22 24 24 25 25 24 23 20 23 27 23 21 18 16 17 15 13 13 11 12 11 11 11 9 9 8 7 6 7 7 10 10 10 10 11 14 15
22 22 21 20 20 22 21 23 22 22 22 20 18 16 16 16 15 15 14 15 15 13 12 12 11 11 11 10 9 9 8 5 4 6 8 9 10 9 10 11 12 14 16
18 20 21 20 18 19 19 19 18 19 19 18 17 15 15 16 15 14 14 14 12 12 12 11 11 11 9 8 8 7 4 4 5 6 8 9 11 12 9 9 11 13 15
18 18 17 19 18 18 18 18 18 19 18 18 16 15 17 15 15 15 13 13 12 11 9 10 10 9 7 6 5 4 5 4 4 5 8 10 11 10 10 11 12 13 14
17 19 18 18 18 19 19 18 18 17 16 16 14 14 14 14 14 13 12 12 10 10 8 10 11 8 5 5 4 2 1 2 2 4 10 10 10 10 10 11 12 13 13
17 17 18 16 16 17 17 17 16 17 16 15 15 14 13 13 13 12 11 10 11 9 8 8 6 5 5 4 2 1 1 2 3 6 6 7 9 9 9 10 11 13 13
16 17 16 16 16 16 17 16 15 15 15 14 15 14 13 12 12 12 11 9 9 9 6 6 5 4 2 3 3 3 4 7 6 7 5 6 8 11 11 10 12 12 13
16 17 16 16 15 14 15 15 15 14 15 14 14 13 12 12 11 10 9 8 8 6 5 4 3 4 4 2 2 5 7 7 8 9 6 6 9 11 10 11 12 11 12
Wind_Direction
172 168 176 183 182 187 218 228 218 207 205 212 207 194 185 173 169 171 173 174 174 175 185 191 191 181 194 200 202 209 225 230 247 267 240 28 52 58 48 57 54 56 69
184 161 178 177 175 179 194 186 187 181 170 179 183 183 173 174 170 168 166 167 168 172 170 177 178 188 198 197 204 221 222 223 238 253 136 64 64 48 62 45 48 34 52
165 167 169 175 174 181 186 173 167 165 150 144 143 164 169 169 179 163 162 164 166 164 164 176 183 189 193 191 195 194 172 126 65 199 123 70 81 51 33 33 38 29 39
165 175 166 176 174 179 181 174 162 160 150 147 138 133 138 150 156 153 146 142 128 119 113 122 143 161 167 161 155 150 140 125 118 123 91 83 64 42 72 39 5 13 33
168 182 170 165 162 163 172 173 165 156 155 153 149 143 139 138 131 136 126 125 120 108 94 88 84 91 90 97 121 117 121 115 105 95 86 77 46 34 24 22 5 344 68
169 176 159 161 158 165 167 166 166 161 148 140 132 129 123 127 149 131 125 123 118 119 112 101 96 90 88 87 84 75 79 111 105 101 93 86 54 58 39 30 18 16 349
174 170 167 165 165 165 158 158 150 131 122 117 113 118 113 111 127 124 120 117 120 119 118 113 104 97 94 92 84 79 72 70 73 94 92 84 66 35 47 37 26 7 310
168 170 167 171 172 163 151 131 117 111 113 113 105 98 93 77 111 113 104 101 98 97 99 103 103 98 92 95 87 79 74 70 71 76 82 83 78 53 45 56 27 336 312
171 167 167 167 158 143 140 132 123 116 102 96 92 96 96 86 93 106 107 103 97 93 91 92 97 97 98 98 96 95 87 77 75 78 79 73 69 58 46 45 32 24 1
174 175 165 156 153 149 140 129 113 108 106 99 90 84 92 93 93 103 109 113 107 102 93 88 88 91 92 91 92 95 91 90 86 76 66 61 49 48 42 44 32 30 12
98 102 118 136 134 128 121 121 119 112 104 97 93 86 85 89 97 104 109 110 111 105 97 91 90 91 88 89 89 90 99 100 86 84 73 62 47 41 30 31 29 23 8
89 94 91 88 108 106 112 111 111 112 107 102 98 90 85 88 95 97 98 101 103 101 100 98 94 90 88 86 82 86 84 81 75 72 63 50 45 32 20 15 8 1 340
82 81 86 95 92 95 100 104 105 107 112 112 108 106 103 96 92 96 98 97 98 101 103 105 102 98 91 83 88 88 83 78 79 71 70 49 35 22 11 357 349 347 335
68 77 77 82 91 84 89 96 103 111 114 118 118 114 105 106 103 99 98 99 97 91 94 96 95 91 86 85 73 69 70 71 75 70 55 43 29 14 8 1 353 348 345
79 77 81 83 83 86 80 85 88 86 106 113 112 114 116 113 108 105 107 102 101 102 100 95 93 91 89 86 84 78 75 70 65 55 49 33 24 11 6 359 360 345 345
87 87 90 92 93 96 98 92 85 96 101 101 102 106 103 112 114 112 112 114 114 114 104 105 97 95 93 93 89 85 77 69 63 61 45 30 18 9 357 357 352 350 346
89 95 97 99 102 106 105 104 103 89 87 91 96 102 108 114 110 111 112 111 108 106 105 103 101 97 98 97 95 87 82 73 71 64 53 36 12 5 1 354 353 357 348
88 88 92 99 103 106 108 109 107 107 104 94 90 99 103 106 108 109 110 107 102 90 97 102 102 105 106 103 99 94 94 87 69 52 42 36 16 4 1 1 360 349 331
85 87 91 93 95 101 104 103 103 103 103 101 97 88 99 102 104 103 100 99 104 100 102 103 101 99 99 99 107 110 106 90 74 54 36 29 11 4 3 1 344 331 323
83 87 90 92 92 92 93 96 99 100 100 99 94 92 87 89 88 82 80 90 97 99 101 102 101 100 107 118 120 110 95 96 59 37 23 15 2 360 4 349 342 333 324
87 84 89 87 87 93 98 101 103 104 101 92 86 84 91 98 95 90 87 87 95 101 105 107 107 112 113 107 105 113 111 84 37 16 8 359 354 359 352 343 332 319 308
89 88 86 91 94 92 93 94 96 97 98 100 96 88 91 91 94 95 94 96 96 100 106 114 116 108 101 114 129 113 97 60 14 6 355 352 353 346 348 335 320 305 308
92 95 92 91 93 95 94 95 97 100 104 104 104 102 97 98 98 100 104 101 102 107 111 109 113 111 97 87 83 112 109 358 349 2 346 343 343 339 334 321 311 310 318
96 95 98 97 95 94 95 97 99 99 103 102 102 103 105 103 102 104 109 111 107 103 104 104 101 92 82 69 67 158 67 56 10 335 330 327 327 328 322 310 306 306 312
88 93 93 96 98 101 100 100 103 106 106 109 110 112 109 109 108 109 112 110 109 103 92 84 82 86 70 29 36 31 8 334 329 334 325 316 316 312 303 302 303 313 317
93 95 97 99 99 103 109 113 112 113 116 119 121 121 124 121 120 118 107 101 97 90 83 75 66 44 24 12 358 333 325 325 326 324 320 317 310 305 306 304 307 316 314